�������l�o���
Date,Time,MP-1(��Sv/h),MP-2(��Sv/h),MP-3(��Sv/h),MP-4(��Sv/h),MP-5(��Sv/h),MP-6(��Sv/h),MP-7(��Sv/h),MP-8(��Sv/h),����,����(m/s),���J
2018/03/13,00:00,0.836,1.412,0.875,1.644,1.105,0.476,0.840,0.812,��쓌,1.4,��
2018/03/13,00:10,0.836,1.412,0.876,1.644,1.105,0.474,0.842,0.811,��,1.5,��
2018/03/13,00:20,0.836,1.413,0.877,1.643,1.103,0.475,0.843,0.812,��쓌,1.8,��
2018/03/13,00:30,0.836,1.411,0.876,1.646,1.106,0.476,0.841,0.811,�쐼,1.5,��
2018/03/13,00:40,0.836,1.411,0.876,1.644,1.103,0.476,0.840,0.810,�쐼,1.1,��
2018/03/13,00:50,0.837,1.410,0.876,1.642,1.104,0.475,0.843,0.812,�쐼,0.9,��
2018/03/13,01:00,0.836,1.411,0.877,1.646,1.103,0.475,0.842,0.812,�쐼,1.9,��
2018/03/13,01:10,0.837,1.412,0.877,1.645,1.105,0.478,0.839,0.812,��쐼,1.1,��
2018/03/13,01:20,0.836,1.412,0.878,1.647,1.103,0.476,0.842,0.812,���쐼,1.7,��
2018/03/13,01:30,0.835,1.411,0.879,1.645,1.103,0.475,0.841,0.812,�쐼,1.4,��
2018/03/13,01:40,0.835,1.413,0.875,1.643,1.104,0.477,0.841,0.811,��쐼,1.4,��
2018/03/13,01:50,0.838,1.412,0.877,1.643,1.105,0.476,0.840,0.811,��쓌,0.9,��
2018/03/13,02:00,0.837,1.413,0.877,1.646,1.104,0.475,0.840,0.814,-,CALM,��
2018/03/13,02:10,0.837,1.410,0.876,1.646,1.104,0.476,0.842,0.811,��쓌,0.9,��
2018/03/13,02:20,0.835,1.412,0.876,1.642,1.103,0.477,0.842,0.811,�쓌,0.6,��
2018/03/13,02:30,0.837,1.411,0.876,1.644,1.102,0.474,0.841,0.810,-,CALM,��
2018/03/13,02:40,0.838,1.409,0.877,1.644,1.105,0.476,0.842,0.812,-,CALM,��
2018/03/13,02:50,0.837,1.409,0.875,1.645,1.103,0.475,0.841,0.812,��쐼,0.8,��
2018/03/13,03:00,0.837,1.410,0.874,1.646,1.103,0.475,0.841,0.812,��쐼,0.8,��
2018/03/13,03:10,0.835,1.412,0.876,1.645,1.105,0.477,0.841,0.813,��쐼,0.9,��
2018/03/13,03:20,0.836,1.411,0.875,1.643,1.103,0.476,0.840,0.811,��쓌,1.7,��
2018/03/13,03:30,0.836,1.411,0.874,1.644,1.105,0.476,0.842,0.812,��,2.0,��
2018/03/13,03:40,0.836,1.411,0.875,1.642,1.103,0.476,0.843,0.809,��,1.7,��
2018/03/13,03:50,0.839,1.410,0.874,1.644,1.105,0.476,0.843,0.813,��쓌,1.1,��
2018/03/13,04:00,0.838,1.412,0.877,1.646,1.102,0.475,0.842,0.812,��,2.9,��
2018/03/13,04:10,0.836,1.410,0.877,1.644,1.104,0.474,0.842,0.812,��쓌,2.0,��
2018/03/13,04:20,0.836,1.410,0.875,1.644,1.102,0.476,0.840,0.813,��,3.0,��
2018/03/13,04:30,0.835,1.410,0.876,1.644,1.106,0.475,0.842,0.813,��,4.0,��
2018/03/13,04:40,0.837,1.410,0.877,1.642,1.104,0.475,0.842,0.812,��,4.6,��
2018/03/13,04:50,0.837,1.411,0.876,1.644,1.104,0.474,0.842,0.812,��,8.0,��
2018/03/13,05:00,0.837,1.411,0.873,1.645,1.103,0.475,0.842,0.811,��,7.7,��
2018/03/13,05:10,0.835,1.411,0.875,1.647,1.102,0.476,0.842,0.811,��,6.6,��
2018/03/13,05:20,0.839,1.409,0.877,1.645,1.102,0.477,0.842,0.812,��,7.8,��
2018/03/13,05:30,0.838,1.409,0.876,1.644,1.103,0.475,0.843,0.812,��,8.3,��
2018/03/13,05:40,0.837,1.412,0.879,1.646,1.103,0.476,0.841,0.811,��,8.5,��
2018/03/13,05:50,0.838,1.409,0.876,1.645,1.103,0.476,0.844,0.812,��,9.1,��
2018/03/13,06:00,0.836,1.411,0.877,1.646,1.102,0.476,0.843,0.813,��쐼,9.0,��
2018/03/13,06:10,0.838,1.412,0.876,1.643,1.103,0.476,0.841,0.814,��쐼,8.5,��
2018/03/13,06:20,0.836,1.410,0.875,1.646,1.103,0.475,0.843,0.813,��쐼,8.8,��
2018/03/13,06:30,0.838,1.412,0.878,1.645,1.104,0.476,0.843,0.814,��쐼,9.1,��
2018/03/13,06:40,0.839,1.415,0.878,1.646,1.105,0.475,0.843,0.812,��쐼,9.8,��
2018/03/13,06:50,0.836,1.414,0.877,1.647,1.104,0.477,0.844,0.813,��쐼,10.5,��
2018/03/13,07:00,0.839,1.414,0.878,1.647,1.104,0.476,0.844,0.813,��쐼,9.6,��
2018/03/13,07:10,0.841,1.412,0.881,1.646,1.107,0.478,0.847,0.815,��쐼,9.0,��
2018/03/13,07:20,0.838,1.413,0.879,1.645,1.106,0.478,0.845,0.813,��쐼,9.1,��
2018/03/13,07:30,0.842,1.415,0.879,1.647,1.106,0.476,0.843,0.813,��쐼,8.2,��
2018/03/13,07:40,0.839,1.413,0.879,1.646,1.107,0.478,0.843,0.815,��쐼,8.0,��
2018/03/13,07:50,0.840,1.415,0.878,1.648,1.108,0.479,0.847,0.814,��쐼,8.6,��
2018/03/13,08:00,0.841,1.411,0.879,1.651,1.107,0.479,0.844,0.814,��쐼,7.8,��
2018/03/13,08:10,0.842,1.413,0.881,1.649,1.109,0.477,0.848,0.814,��쐼,6.9,��
2018/03/13,08:20,0.842,1.414,0.880,1.647,1.109,0.479,0.846,0.814,�쐼,6.4,��
2018/03/13,08:30,0.844,1.413,0.880,1.648,1.109,0.478,0.848,0.815,�쐼,6.7,��
2018/03/13,08:40,0.842,1.415,0.881,1.649,1.108,0.479,0.844,0.814,��쐼,6.3,��
2018/03/13,08:50,0.843,1.418,0.880,1.647,1.112,0.478,0.846,0.814,��쐼,5.5,��
2018/03/13,09:00,0.845,1.413,0.882,1.650,1.110,0.480,0.844,0.816,��쐼,6.8,��
2018/03/13,09:10,0.844,1.416,0.879,1.650,1.112,0.479,0.844,0.815,��쐼,6.0,��
2018/03/13,09:20,0.845,1.417,0.879,1.649,1.112,0.481,0.844,0.817,��쐼,6.4,��
2018/03/13,09:30,0.847,1.417,0.883,1.650,1.109,0.480,0.843,0.816,��쐼,7.3,��
2018/03/13,09:40,0.848,1.415,0.884,1.652,1.110,0.483,0.847,0.817,��,7.3,��
2018/03/13,09:50,0.847,1.415,0.883,1.650,1.112,0.481,0.845,0.814,��,7.0,��
2018/03/13,10:00,0.848,1.414,0.883,1.652,1.110,0.482,0.846,0.815,��,6.4,��
2018/03/13,10:10,0.847,1.416,0.884,1.652,1.113,0.479,0.846,0.815,��쓌,6.9,��
2018/03/13,10:20,0.848,1.415,0.884,1.651,1.109,0.480,0.848,0.815,��,7.2,��
2018/03/13,10:30,0.847,1.414,0.885,1.653,1.109,0.482,0.849,0.813,��,6.8,��
2018/03/13,10:40,0.846,1.417,0.885,1.651,1.109,0.479,0.847,0.811,��쐼,7.2,��
2018/03/13,10:50,0.848,1.414,0.884,1.654,1.109,0.480,0.848,0.813,��,6.9,��
2018/03/13,11:00,0.846,1.417,0.882,1.654,1.110,0.480,0.849,0.812,��,7.6,��
2018/03/13,11:10,0.847,1.415,0.883,1.653,1.113,0.483,0.848,0.813,��,8.1,��
2018/03/13,11:20,0.847,1.417,0.883,1.652,1.110,0.481,0.848,0.812,��쓌,7.5,��
2018/03/13,11:30,0.847,1.420,0.883,1.656,1.112,0.481,0.849,0.813,��,6.6,��
2018/03/13,11:40,0.847,1.418,0.884,1.656,1.113,0.481,0.849,0.814,��,7.6,��
2018/03/13,11:50,0.848,1.418,0.884,1.653,1.112,0.481,0.848,0.815,��,9.2,��
2018/03/13,12:00,0.847,1.419,0.882,1.655,1.113,0.483,0.847,0.812,��,8.2,��
2018/03/13,12:10,0.848,1.421,0.883,1.654,1.112,0.481,0.848,0.813,��쓌,10.2,��
2018/03/13,12:20,0.850,1.420,0.883,1.655,1.112,0.481,0.846,0.814,��,6.7,��
2018/03/13,12:30,0.850,1.421,0.883,1.654,1.114,0.483,0.849,0.813,��,10.3,��
2018/03/13,12:40,0.850,1.422,0.885,1.654,1.113,0.482,0.847,0.811,��,7.8,��
2018/03/13,12:50,0.850,1.422,0.885,1.656,1.116,0.482,0.848,0.814,��쓌,9.4,��
2018/03/13,13:00,0.849,1.423,0.885,1.658,1.115,0.481,0.848,0.814,��,6.6,��
2018/03/13,13:10,0.849,1.425,0.884,1.657,1.116,0.482,0.848,0.812,��,9.0,��
2018/03/13,13:20,0.849,1.421,0.884,1.657,1.115,0.484,0.848,0.813,��쓌,9.6,��
2018/03/13,13:30,0.849,1.421,0.885,1.658,1.116,0.483,0.850,0.813,��,8.6,��
2018/03/13,13:40,0.850,1.422,0.885,1.656,1.114,0.481,0.849,0.814,��,9.2,��
2018/03/13,13:50,0.851,1.422,0.885,1.656,1.113,0.483,0.849,0.815,��,7.4,��
2018/03/13,14:00,0.850,1.421,0.885,1.658,1.117,0.483,0.848,0.815,��,8.2,��
2018/03/13,14:10,0.851,1.422,0.885,1.658,1.114,0.483,0.850,0.814,��,7.5,��
2018/03/13,14:20,0.852,1.423,0.886,1.658,1.113,0.482,0.850,0.815,��,6.1,��
2018/03/13,14:30,0.849,1.420,0.886,1.654,1.116,0.483,0.851,0.814,��,6.4,��
2018/03/13,14:40,0.850,1.424,0.886,1.659,1.116,0.483,0.848,0.815,��,6.7,��
2018/03/13,14:50,0.849,1.422,0.885,1.657,1.122,0.483,0.850,0.814,��,7.3,��
2018/03/13,15:00,0.849,1.425,0.886,1.657,1.120,0.483,0.848,0.815,��,7.3,��
2018/03/13,15:10,0.851,1.421,0.885,1.659,1.122,0.484,0.849,0.815,��,7.9,��
2018/03/13,15:20,0.852,1.425,0.885,1.657,1.120,0.482,0.848,0.813,��,8.7,��
2018/03/13,15:30,0.851,1.424,0.887,1.659,1.119,0.482,0.848,0.814,��,8.9,��
2018/03/13,15:40,0.850,1.426,0.887,1.658,1.121,0.484,0.848,0.813,��쓌,9.1,��
2018/03/13,15:50,0.851,1.426,0.884,1.657,1.119,0.485,0.848,0.813,��,7.4,��
2018/03/13,16:00,0.853,1.426,0.885,1.657,1.120,0.485,0.849,0.813,��,6.9,��
2018/03/13,16:10,0.852,1.426,0.887,1.659,1.122,0.485,0.849,0.812,��,7.7,��
2018/03/13,16:20,0.850,1.428,0.884,1.658,1.119,0.484,0.847,0.813,��,7.5,��
2018/03/13,16:30,0.851,1.429,0.887,1.661,1.119,0.484,0.848,0.815,��,5.1,��
2018/03/13,16:40,0.853,1.428,0.888,1.660,1.120,0.485,0.848,0.816,��쐼,5.5,��
2018/03/13,16:50,0.853,1.430,0.888,1.660,1.120,0.486,0.848,0.816,��쐼,5.4,��
2018/03/13,17:00,0.851,1.431,0.887,1.658,1.118,0.485,0.846,0.817,��쐼,5.5,��
2018/03/13,17:10,0.852,1.429,0.891,1.659,1.121,0.485,0.848,0.818,��쐼,4.5,��
2018/03/13,17:20,0.852,1.431,0.887,1.656,1.118,0.486,0.849,0.817,��쐼,3.6,��
2018/03/13,17:30,0.849,1.429,0.889,1.658,1.121,0.486,0.847,0.816,��,4.9,��
2018/03/13,17:40,0.852,1.432,0.890,1.657,1.120,0.485,0.849,0.819,��쐼,5.2,��
2018/03/13,17:50,0.852,1.429,0.889,1.658,1.123,0.486,0.849,0.817,��쐼,6.1,��
2018/03/13,18:00,0.852,1.428,0.890,1.657,1.123,0.486,0.849,0.817,�쐼,5.7,��
2018/03/13,18:10,0.855,1.426,0.888,1.657,1.121,0.484,0.850,0.816,��쐼,5.7,��
2018/03/13,18:20,0.853,1.430,0.889,1.657,1.121,0.483,0.850,0.817,�쐼,5.0,��
2018/03/13,18:30,0.856,1.427,0.890,1.656,1.121,0.485,0.849,0.817,��쐼,3.4,��
2018/03/13,18:40,0.852,1.428,0.888,1.658,1.122,0.483,0.850,0.816,�쓌,2.0,��
2018/03/13,18:50,0.853,1.427,0.889,1.657,1.123,0.485,0.851,0.817,�쐼,2.3,��
2018/03/13,19:00,0.853,1.429,0.890,1.656,1.123,0.485,0.850,0.815,�쐼,2.0,��
2018/03/13,19:10,0.853,1.429,0.888,1.657,1.120,0.484,0.852,0.818,���쐼,2.3,��
2018/03/13,19:20,0.854,1.426,0.889,1.656,1.121,0.484,0.851,0.816,���쐼,3.3,��
2018/03/13,19:30,0.850,1.427,0.887,1.658,1.122,0.485,0.850,0.816,���쐼,3.8,��
2018/03/13,19:40,0.853,1.428,0.888,1.656,1.121,0.484,0.850,0.817,�쐼,4.5,��
2018/03/13,19:50,0.851,1.427,0.889,1.657,1.120,0.485,0.850,0.817,�쐼,4.1,��
2018/03/13,20:00,0.853,1.429,0.888,1.654,1.120,0.483,0.848,0.816,�쐼,4.4,��
2018/03/13,20:10,0.852,1.426,0.889,1.657,1.123,0.484,0.849,0.815,�쐼,4.9,��
2018/03/13,20:20,0.853,1.428,0.889,1.655,1.121,0.484,0.848,0.818,�쐼,6.6,��
2018/03/13,20:30,0.851,1.428,0.889,1.660,1.119,0.483,0.848,0.816,�쐼,6.5,��
2018/03/13,20:40,0.853,1.428,0.889,1.657,1.122,0.484,0.851,0.816,�쐼,6.1,��
2018/03/13,20:50,0.853,1.426,0.890,1.655,1.122,0.484,0.849,0.815,�쐼,4.9,��
2018/03/13,21:00,0.854,1.430,0.888,1.659,1.123,0.484,0.851,0.815,��쐼,5.7,��
2018/03/13,21:10,0.852,1.425,0.887,1.656,1.124,0.483,0.848,0.815,��쐼,4.8,��
2018/03/13,21:20,0.852,1.424,0.889,1.655,1.122,0.484,0.849,0.818,�쐼,5.8,��
2018/03/13,21:30,0.854,1.428,0.891,1.658,1.118,0.483,0.849,0.815,�쐼,6.0,��
2018/03/13,21:40,0.852,1.427,0.888,1.655,1.125,0.483,0.848,0.815,�쐼,5.4,��
2018/03/13,21:50,0.853,1.426,0.889,1.655,1.121,0.483,0.849,0.815,�쐼,5.8,��
2018/03/13,22:00,0.853,1.426,0.889,1.656,1.121,0.485,0.848,0.816,���쐼,5.9,��
2018/03/13,22:10,0.853,1.427,0.890,1.659,1.122,0.483,0.848,0.815,���쐼,6.4,��
2018/03/13,22:20,0.854,1.425,0.890,1.660,1.121,0.484,0.850,0.817,���쐼,6.4,��
2018/03/13,22:30,0.853,1.431,0.890,1.659,1.122,0.484,0.848,0.818,���쐼,7.4,��
2018/03/13,22:40,0.855,1.428,0.889,1.657,1.122,0.484,0.848,0.817,���쐼,7.0,��
2018/03/13,22:50,0.853,1.426,0.889,1.658,1.123,0.484,0.849,0.817,���쐼,7.6,��
2018/03/13,23:00,0.856,1.430,0.889,1.658,1.122,0.483,0.850,0.816,���쐼,8.8,��
2018/03/13,23:10,0.855,1.429,0.889,1.658,1.123,0.485,0.850,0.818,���쐼,9.0,��
2018/03/13,23:20,0.856,1.427,0.889,1.662,1.123,0.484,0.851,0.815,���쐼,9.6,��
2018/03/13,23:30,0.854,1.428,0.890,1.661,1.121,0.483,0.853,0.819,���쐼,9.0,��
2018/03/13,23:40,0.853,1.427,0.891,1.658,1.124,0.484,0.853,0.817,���쐼,7.5,��
2018/03/13,23:50,0.853,1.429,0.890,1.658,1.125,0.485,0.850,0.816,���쐼,7.1,��
